| time (UTC) | temp F | wind direction | speed knots | gust knots | rain 1hr in | rain 24hr in | rain mn in | humidity % | barometer mb |
| 20260906220039 | 98 | 129 | 4.3 | 13.0 | 0.00 | 0.00 | 0.00 | 37 | 1008.5 |
| 20260906214539 | 98 | 116 | 7.8 | 13.0 | 0.00 | 0.00 | 0.00 | 38 | 1008.7 |
| 20260906213029 | 98 | 163 | 6.1 | 14.8 | 0.00 | 0.00 | 0.00 | 38 | 1008.9 |
| 20260906211528 | 98 | 126 | 8.7 | 13.9 | 0.00 | 0.00 | 0.00 | 37 | 1009.2 |
| 20260906210023 | 98 | 158 | 5.2 | 14.8 | 0.00 | 0.00 | 0.00 | 37 | 1009.4 |
| 20260906204521 | 98 | 101 | 6.1 | 13.0 | 0.00 | 0.00 | 0.00 | 38 | 1009.7 |
| 20260906203020 | 98 | 104 | 6.1 | 10.4 | 0.00 | 0.00 | 0.00 | 37 | 1009.8 |
| 20260906201518 | 97 | 143 | 7.8 | 13.9 | 0.00 | 0.00 | 0.00 | 39 | 1010.1 |
| 20260906200017 | 95 | 145 | 6.1 | 11.3 | 0.00 | 0.00 | 0.00 | 39 | 1010.2 |
| 20260906194518 | 97 | 109 | 7.8 | 13.0 | 0.00 | 0.00 | 0.00 | 37 | 1010.2 |
| 20260906193015 | 97 | 122 | 7.8 | 13.9 | 0.00 | 0.00 | 0.00 | 38 | 1010.2 |
| 20260906191509 | 97 | 130 | 8.7 | 13.9 | 0.00 | 0.00 | 0.00 | 38 | 1010.4 |
| 20260906190011 | 97 | 154 | 5.2 | 20.0 | 0.00 | 0.00 | 0.00 | 40 | 1010.3 |
| 20260906184505 | 97 | 125 | 7.8 | 16.5 | 0.00 | 0.00 | 0.00 | 39 | 1010.6 |
| 20260906183007 | 96 | 143 | 7.8 | 15.6 | 0.00 | 0.00 | 0.00 | 40 | 1010.7 |
| 20260906181506 | 96 | 144 | 7.0 | 12.2 | 0.00 | 0.00 | 0.00 | 43 | 1010.8 |
| 20260906180105 | 96 | 127 | 7.0 | 13.9 | 0.00 | 0.00 | 0.00 | 42 | 1011.1 |
| 20260906174610 | 96 | 112 | 8.7 | 13.9 | 0.00 | 0.00 | 0.00 | 42 | 1011.4 |
| 20260906173102 | 95 | 121 | 7.0 | 14.8 | 0.00 | 0.00 | 0.00 | 43 | 1011.7 |
| 20260906171555 | 95 | 133 | 10.4 | 14.8 | 0.00 | 0.00 | 0.00 | 43 | 1011.8 |
| 20260906170051 | 95 | 132 | 7.0 | 13.9 | 0.00 | 0.00 | 0.00 | 44 | 1012.0 |
| 20260906164550 | 94 | 161 | 5.2 | 9.6 | 0.00 | 0.00 | 0.00 | 47 | 1012.1 |
| 20260906163055 | 93 | 99 | 1.7 | 7.0 | 0.00 | 0.00 | 0.00 | 50 | 1012.2 |
| 20260906161543 | 92 | 238 | 2.6 | 6.1 | 0.00 | 0.00 | 0.00 | 52 | 1012.3 |
| 20260906160040 | 91 | 147 | 4.3 | 7.8 | 0.00 | 0.00 | 0.00 | 53 | 1012.4 |
| 20260906154538 | 91 | 91 | 2.6 | 8.7 | 0.00 | 0.00 | 0.00 | 55 | 1012.3 |
| 20260906153037 | 90 | 110 | 1.7 | 3.5 | 0.00 | 0.00 | 0.00 | 56 | 1012.2 |
| 20260906151533 | 89 | 111 | 1.7 | 3.5 | 0.00 | 0.00 | 0.00 | 58 | 1012.2 |
| 20260906150032 | 88 | 119 | 0.9 | 3.5 | 0.00 | 0.00 | 0.00 | 62 | 1012.1 |
| 20260906144525 | 86 | 146 | 0.0 | 5.2 | 0.00 | 0.00 | 0.00 | 64 | 1012.1 |
| 20260906143022 | 85 | 177 | 1.7 | 6.1 | 0.00 | 0.00 | 0.00 | 66 | 1012.1 |
| 20260906141520 | 84 | 152 | 1.7 | 5.2 | 0.00 | 0.00 | 0.00 | 69 | 1012.1 |
| 20260906140021 | 83 | 164 | 1.7 | 5.2 | 0.00 | 0.00 | 0.00 | 70 | 1012.0 |
| 20260906134518 | 82 | 164 | 2.6 | 4.3 | 0.00 | 0.00 | 0.00 | 72 | 1012.0 |
| 20260906133016 | 81 | 158 | 1.7 | 5.2 | 0.00 | 0.00 | 0.00 | 76 | 1012.1 |
| 20260906131515 | 79 | 151 | 1.7 | 4.3 | 0.00 | 0.00 | 0.00 | 78 | 1012.1 |
| 20260906130012 | 77 | 160 | 0.0 | 0.0 | 0.00 | 0.00 | 0.00 | 82 | 1011.8 |
| 20260906124511 | 75 | 160 | 0.0 | 0.0 | 0.00 | 0.00 | 0.00 | 85 | 1011.8 |
| 20260906123016 | 74 | 160 | 0.0 | 0.0 | 0.00 | 0.00 | 0.00 | 87 | 1011.7 |
| 20260906121508 | 74 | 160 | 0.0 | 0.0 | 0.00 | 0.00 | 0.00 | 85 | 1011.4 |
| 20260906120010 | 74 | 160 | 0.0 | 0.0 | 0.00 | 0.00 | 0.00 | 86 | 1011.2 |
| 20260906114518 | 74 | 160 | 0.0 | 0.0 | 0.00 | 0.00 | 0.00 | 85 | 1011.2 |
| 20260906113005 | 74 | 160 | 0.0 | 0.0 | 0.00 | 0.00 | 0.00 | 84 | 1011.0 |
| 20260906111503 | 74 | 160 | 0.0 | 0.0 | 0.00 | 0.00 | 0.00 | 84 | 1011.1 |
| 20260906110000 | 75 | 160 | 0.0 | 0.0 | 0.00 | 0.00 | 0.00 | 83 | 1010.8 |
| 20260906104559 | 75 | 160 | 0.0 | 0.0 | 0.00 | 0.00 | 0.00 | 82 | 1010.7 |
| 20260906103059 | 75 | 160 | 0.0 | 0.0 | 0.00 | 0.00 | 0.00 | 83 | 1010.6 |
| 20260906101604 | 75 | 160 | 0.0 | 0.0 | 0.00 | 0.00 | 0.00 | 82 | 1010.6 |
| 20260906100057 | 75 | 160 | 0.0 | 0.0 | 0.00 | 0.00 | 0.00 | 82 | 1010.3 |
| 20260906094555 | 76 | 160 | 0.0 | 0.0 | 0.00 | 0.00 | 0.00 | 80 | 1010.4 |
| 20260906093053 | 76 | 160 | 0.0 | 0.0 | 0.00 | 0.00 | 0.00 | 81 | 1010.2 |
| 20260906091553 | 76 | 160 | 0.0 | 0.0 | 0.00 | 0.00 | 0.00 | 79 | 1010.3 |
| 20260906090050 | 77 | 160 | 0.0 | 0.9 | 0.00 | 0.00 | 0.00 | 79 | 1010.2 |
| 20260906084549 | 77 | 160 | 0.0 | 0.0 | 0.00 | 0.00 | 0.00 | 79 | 1010.1 |
| 20260906083049 | 78 | 159 | 0.0 | 0.0 | 0.00 | 0.00 | 0.00 | 77 | 1010.2 |
| 20260906081547 | 78 | 159 | 0.0 | 0.0 | 0.00 | 0.00 | 0.00 | 76 | 1010.0 |
| 20260906080044 | 78 | 159 | 0.0 | 0.0 | 0.00 | 0.00 | 0.00 | 76 | 1009.9 |
| 20260906074546 | 78 | 159 | 0.0 | 0.0 | 0.00 | 0.00 | 0.00 | 76 | 1009.8 |
| 20260906073045 | 78 | 159 | 0.0 | 0.0 | 0.00 | 0.00 | 0.00 | 75 | 1010.2 |
| 20260906071538 | 79 | 159 | 0.0 | 0.0 | 0.00 | 0.00 | 0.00 | 73 | 1010.3 |
| 20260906070036 | 80 | 159 | 0.0 | 0.0 | 0.00 | 0.00 | 0.00 | 71 | 1010.2 |
| 20260906064537 | 81 | 159 | 0.0 | 0.0 | 0.00 | 0.00 | 0.00 | 71 | 1010.2 |
| 20260906063030 | 81 | 159 | 0.0 | 0.0 | 0.00 | 0.00 | 0.00 | 69 | 1010.4 |
| 20260906061529 | 82 | 159 | 0.0 | 0.0 | 0.00 | 0.00 | 0.00 | 69 | 1010.5 |
| 20260906060031 | 82 | 159 | 0.0 | 0.0 | 0.00 | 0.00 | 0.00 | 68 | 1010.5 |
| 20260906054527 | 82 | 159 | 0.0 | 0.0 | 0.00 | 0.00 | 0.00 | 68 | 1010.3 |
| 20260906053030 | 82 | 159 | 0.0 | 0.0 | 0.00 | 0.00 | 0.00 | 66 | 1010.6 |
| 20260906051521 | 82 | 159 | 0.0 | 0.0 | 0.00 | 0.00 | 0.00 | 66 | 1010.6 |
| 20260906050020 | 84 | 159 | 0.0 | 0.9 | 0.00 | 0.00 | 0.00 | 63 | 1010.6 |
| 20260906044517 | 85 | 159 | 0.0 | 0.9 | 0.00 | 0.00 | 0.00 | 62 | 1010.4 |
| 20260906043017 | 85 | 159 | 0.0 | 2.6 | 0.00 | 0.00 | 0.00 | 60 | 1010.5 |
| 20260906041522 | 86 | 159 | 0.0 | 2.6 | 0.00 | 0.00 | 0.00 | 58 | 1010.5 |
| 20260906040025 | 86 | 159 | 0.9 | 3.5 | 0.00 | 0.00 | 0.00 | 57 | 1010.3 |
| 20260906034513 | 87 | 153 | 1.7 | 6.1 | 0.00 | 0.00 | 0.00 | 55 | 1010.3 |
| 20260906033013 | 87 | 151 | 3.5 | 7.0 | 0.00 | 0.00 | 0.00 | 54 | 1010.3 |
| 20260906031526 | 86 | 134 | 2.6 | 6.1 | 0.00 | 0.00 | 0.00 | 52 | 1010.1 |
| 20260906030012 | 85 | 144 | 0.0 | 0.9 | 0.00 | 0.00 | 0.00 | 57 | 1010.0 |
| 20260906024511 | 86 | 144 | 0.0 | 0.9 | 0.00 | 0.00 | 0.00 | 53 | 1009.9 |
| 20260906023011 | 88 | 144 | 0.0 | 0.0 | 0.00 | 0.00 | 0.00 | 52 | 1009.6 |
| 20260906021511 | 89 | 144 | 0.0 | 0.9 | 0.00 | 0.00 | 0.00 | 47 | 1009.4 |
| 20260906020011 | 89 | 144 | 0.0 | 1.7 | 0.00 | 0.00 | 0.00 | 46 | 1009.2 |
| 20260906014512 | 89 | 144 | 0.9 | 1.7 | 0.00 | 0.00 | 0.00 | 46 | 1009.1 |
| 20260906013009 | 90 | 144 | 0.0 | 0.9 | 0.00 | 0.00 | 0.00 | 45 | 1008.9 |
| 20260906011509 | 91 | 144 | 0.0 | 2.6 | 0.00 | 0.00 | 0.00 | 44 | 1008.7 |
| 20260906010012 | 92 | 144 | 0.0 | 2.6 | 0.00 | 0.00 | 0.00 | 42 | 1008.6 |
| 20260906004507 | 94 | 145 | 1.7 | 4.3 | 0.00 | 0.00 | 0.00 | 41 | 1008.5 |
| 20260906003007 | 95 | 150 | 1.7 | 4.3 | 0.00 | 0.00 | 0.00 | 39 | 1008.6 |
| 20260906001507 | 95 | 158 | 3.5 | 7.0 | 0.00 | 0.00 | 0.00 | 38 | 1008.5 |
| 20260906000007 | 96 | 139 | 3.5 | 7.0 | 0.00 | 0.00 | 0.00 | 38 | 1008.3 |
| 20260905234506 | 97 | 133 | 2.6 | 7.8 | 0.00 | 0.00 | 0.00 | 37 | 1008.4 |
| 20260905233005 | 97 | 121 | 4.3 | 9.6 | 0.00 | 0.00 | 0.00 | 37 | 1008.2 |
| 20260905231507 | 98 | 158 | 5.2 | 8.7 | 0.00 | 0.00 | 0.00 | 37 | 1008.2 |
| 20260905230004 | 98 | 116 | 5.2 | 11.3 | 0.00 | 0.00 | 0.00 | 36 | 1008.2 |
| 20260905224601 | 98 | 138 | 3.5 | 7.0 | 0.00 | 0.00 | 0.00 | 36 | 1008.2 |
| 20260905223058 | 98 | 118 | 6.1 | 12.2 | 0.00 | 0.00 | 0.00 | 35 | 1008.2 |
| 20260905221605 | 99 | 95 | 3.5 | 7.0 | 0.00 | 0.00 | 0.00 | 35 | 1008.3 |